[實況] NS Nindies Showcase Spring 2019 直播

看板 nswitch
作者 wl760713
留言 194
日期 March 20, 2019, 11:36 p.m.
https://www.youtube.com/watch?v=wUnpK23g4FY
台灣12點開始直播 不知道會有那些獨立遊戲 老外瘋狂刷頻中 0:16 - Cuphead 3:28 - Overland 4:28 - My Friend Pedro 5:15 - Neo Cab 6:54 - The Red Lantern 9:08 - Darkwood 10:02 - Katana ZERO 11:41 - RAD 14:00 - Creature in the Well 15:01 - Bloodroots 15:52 - Pine 17:50 - Super Crate Box 18:06 - Nuclear Throne 18:23 - Ultra Bugs 19:12 - Swimsanity! 20:06 - Blaster Master Zero II 22:13 - Stranger Things 3 The Game 23:43 - Nindie Sales 24:16 - Cadence of Hyrule - Crypt of the Necrodancer -- ※ 發信站: 批踢踢實業坊(ptt.cc), 來自: 1.162.126.83 ※ 文章網址: https://www.ptt.cc/bbs/NSwitch/M.1553096215.A.EDD.html
1FLUDD: 推一個,晚點看 03/20 23:39
2FHardyChen: 等等配陸行鳥看 03/20 23:43
3Fswordmr20: 陸行鵝大賽車 03/20 23:46
4Fhipposman: va-11已經要出了我沒懸念 等看有啥驚喜 03/20 23:50
5Fvsepr55: king of card該有消息了吧= = 03/20 23:51
6Fvsepr55: 聊天室刷有夠快= = 03/20 23:54
7Fisaka: 準備下載殺戮尖塔 03/20 23:55
8Fisaka: 很多indie工作室都喜歡這次老任的策略啊,他們平常去哪裡找 03/20 23:56
9Fisaka: 幾萬人看他們實況預告片 03/20 23:56
10Fvsepr55: 有Celeste ch9就steam再買一次 03/20 23:59
11Fryoma1: 牛奶廣告? 03/21 00:01
12Fayubabbit: cuphead耶 03/21 00:01
13Fvsepr55: 哇靠 03/21 00:01
14Fisaka: 幹茶杯頭!!!! 03/21 00:01
15Fryoma1: 杯子頭啊 03/21 00:01
16Fkashiwa27: 杯子頭 03/21 00:01
17Fztc5132: 好狂的開場XD 03/21 00:01
18Fisaka: 買買買 03/21 00:01
19Fswordmr20: 杯頭 03/21 00:01
20Fryoma1: 太扯了,微軟真的同意啊 03/21 00:01
21FleamaSTC: 茶杯頭...好像是第一次上別家平台? 03/21 00:01
22Fbestadi: 茶杯頭 .... 幹 03/21 00:01
23Ft77133562003: 幹 扯淡 微軟放人了 03/21 00:02
24Fryoma1: 跟空洞騎士一樣,有著2D黑魂封號的神作 03/21 00:02
25Fgohow: 帥喔 03/21 00:03
26Fisaka: 空洞騎士就雖小和茶杯頭同一年,很多獎都輸茶杯 03/21 00:03
27Fkazuya281: 還好沒為了茶杯頭買XBOX 03/21 00:03
28Fisaka: 這款設計之前看遊戲驢子介紹也很期待 03/21 00:05
29Fisaka: 哇居然是主機獨佔,ns真的變獨立遊戲首選了 03/21 00:05
30Fpeter821201: 剛剛那款可以救狗的是什麼 03/21 00:05
31Fcliffwun1027: 茶杯頭明明steam也有 03/21 00:06
32Fisaka: *這款射擊 03/21 00:06
33FWillchiBiry: Overland? steam上也有 03/21 00:06
34Fztc5132: 計程車司機模擬器 微妙0.0 03/21 00:06
35Fisaka: My friend pedro 03/21 00:08
36Fisaka: 我說主機獨佔阿XD 03/21 00:08
37FleamaSTC: 明明XB跟PC就同一台啊 03/21 00:08
38Fryoma1: 極地長征? 03/21 00:08
39FleamaSTC: 大神逆 03/21 00:12
40FPocer: WTF.................. 03/21 00:13
41Fsuper009: NS的一些2D風遊戲 感覺都還不錯 03/21 00:13
42FleamaSTC: 靠妖 原來是ben10啊 好有趣 03/21 00:13
43Fswordmr20: 這吸很多喔 但看起來很有趣 03/21 00:13
44Fztc5132: 這個吸收進化的遊戲看起來好狂 03/21 00:13
45Fbestadi: ....這arpg製作人是嗑了什麼藥 0.0 03/21 00:13
46Ft77133562003: 這三小 這也吸太多 03/21 00:14
47FToothGrass: 突變有ㄎㄧㄤwww 03/21 00:14
48Fvsepr55: 彈珠台笑死 03/21 00:14
49Fztc5132: 真 彈珠台 03/21 00:15
50Fryoma1: 消方塊進化成動作遊戲 03/21 00:15
51Fqsakurayuki: 比較像打方塊XD 03/21 00:15
52FPPPGGG: RPG彈珠台 03/21 00:15
53FleamaSTC: 那蜥蝪人的造型跟武器好熟悉啊... 03/21 00:17
54Fayubabbit: 這樣也算indie? 03/21 00:17
55Fisaka: 聊天室一直洗breath of the wild 2 XDDDD 03/21 00:17
56Fnewyellow: 看起來很荒野 但這個美術好像有點不行 XD 03/21 00:17
57FleamaSTC: 實機有點囧 03/21 00:17
58FPPPGGG: = =0.87%的荒野 03/21 00:17
59Fryoma1: 歐美版的動物之森 03/21 00:18
60Fs32244153: 又一個RL 03/21 00:18
61Faroyyo9630: 學薩爾達嗎 03/21 00:19
62Fztc5132: 哎唷!這個水中射擊的可以用Mic唷! 03/21 00:20
63Fqsakurayuki: 這個不是出過了? 03/21 00:20
64Fswordmr20: 哇尻重製版 03/21 00:20
65Fericliung: Botw太成功 被模仿滿正常的 03/21 00:20
66Fsuper009: fc重製版 03/21 00:20
67Fqsakurayuki: 啊 關卡不一樣 是新的?... 03/21 00:20
68Fasdasd75793: 洛克人喔wwwwww 03/21 00:21
69Fpeter821201: 10FPS LUL 03/21 00:21
70Fryoma1: 小時候好像在紅白機玩過類似的,每次都在第一關一開始就 03/21 00:21
71Fryoma1: 撞死 03/21 00:21
72Fshinchen: Blaster Master Zero 2 前一代是NS首發 03/21 00:22
73Fqsakurayuki: 這個1代有出NS版阿 FC的重製 03/21 00:22
74Fjjelm: 怪奇物語 03/21 00:22
75FleamaSTC: 幹老媽三出來啦(誤 03/21 00:22
76Fztc5132: 怪奇物語wwwwww 03/21 00:22
77FleamaSTC: 怪奇物語3預告片已經夠YA了 這遊戲更謎... 03/21 00:23
78Fgohow: 笑死 03/21 00:23
79Faroyyo9630: 沒囉 03/21 00:23
80Faroyyo9630: 好空虛 03/21 00:23
81Fztc5132: 殺戮尖塔呢? 03/21 00:24
82Fryoma1: 沒有彎摸幸嗎 03/21 00:24
83Fblankhole: 地牢不是早就有了? 03/21 00:24
84FleamaSTC: Q版節奏地牢?.. 幹還有薩爾達 03/21 00:25
85Fvsepr55: wtf 03/21 00:25
86Fblankhole: 哦哦哦 03/21 00:25
87Fswordmr20: 幹 林克 03/21 00:25
88Feaden: 二代? 03/21 00:25
89Fisaka: 三小? 03/21 00:25
90FleamaSTC: 幹好潮 超有趣的 03/21 00:25
91Fryoma1: 老任上次放出薩爾達合作是什麼時候的事啦? 03/21 00:25
92Fpeter821201: 哇靠 薩爾達節奏地牢 03/21 00:25
93Fggchioinder: 海魯啦地牢XDD 03/21 00:25
94Fbestadi: 0.0!? 這三小 03/21 00:25
95Fch710181: 幹 買了 03/21 00:25
96FPocer: 襪賽 老任幫成這樣喔 03/21 00:25
97Ft77133562003: 海魯啦地牢 幹妳媽瘩 03/21 00:25
98Fayubabbit: 為啥寫spikechunsoft 03/21 00:25
99Fcute781217: 就這樣喔? .... 03/21 00:25
100Fdurimoo: 喔喔喔喔喔喔喔喔喔喔喔歐歐歐歐歐歐歐歐 03/21 00:26
101Fisaka: 不是阿殺戮尖塔咧 03/21 00:26
102Fhatsuta: 獨立遊戲本來就這樣 想期待啥 03/21 00:26
103FSDFSDF: 今天收穫 各種消費zelda 03/21 00:26
104Fswordmr20: 做獨立遊戲可以做到跟官方合作真的很屌 03/21 00:26
105FToothGrass: 薩爾達節奏地牢也太狂喇!!! 03/21 00:26
106Fsalk1203: 薩爾達節奏地牢XD 03/21 00:26
107FleamaSTC: 2019春季啊 幹好期待啊海拉魯節奏 03/21 00:27
108Fbestadi: 這次還不錯啦 但聊天室似乎還是比較關心smash吧 XDDD 03/21 00:27
109Fblankhole: QQ, 我從1/23等到現在,還是沒有殺戮尖塔 03/21 00:27
110Fkickyourface: 居然有官方合作耶 03/21 00:27
111FPorops: 節奏地牢喔喔喔喔喔喔喔喔太猛了 03/21 00:27
112FPocer: 老任真的全力推獨立遊戲耶 03/21 00:27
113FleamaSTC: 這個不算放出吧 應該會是NS獨佔 03/21 00:27
114Fa34614422: 太神啦 03/21 00:27
115Fchris38c28: 我記得節奏地牢日版就是掛spikechunsoft? 03/21 00:28
116Fbestadi: 薩爾達系列在獨立界一直被致敬阿 老任直接放寬給他們玩吧 03/21 00:28
117FPorops: spike算是節奏地牢的發行商跟代理商,合作很深 03/21 00:28
118Fdurimoo: 敢放我就敢買 03/21 00:28
119Fisaka: 老任打算靠獨立遊戲撐到馬造出來嗎XDD 感覺這次很有誠意 03/21 00:29
120FleamaSTC: 這個已經不算獨立遊戲了吧 老任有LOGO應該有投錢 03/21 00:30
121FleamaSTC: 所以連遊戲名都改了 03/21 00:30
122Fswordmr20: E3前不知還有沒有任直 03/21 00:30
123FDASPAWN: 看到節奏地牢跟薩爾達合作 我整個爽到無力 超期待的 03/21 00:30
124Fryoma1: 這也可以看做薩爾達2D新作了吧?(本來只有織夢島) 03/21 00:30
125Fs32244153: 授權跟投錢是兩回事 03/21 00:31
※ 編輯: wl760713 (1.162.126.83), 03/21/2019 00:33:05
126Fa34614422: 如果動森如願以償4月發售那老任今年會毀滅我的荷包 03/21 00:32
127Fisaka: 動森還沒有公布發售日吧? 03/21 00:33
128Fbestadi: E3前通常會有smash ND 而且3.0版櫻井應該還有藏招吧!? 03/21 00:33
129FPocer: 春季會有JOKER亂鬥直面會阿 但不排除重新定義春季 03/21 00:34
130Fjin062900: 動森傳說是9月 這種級別的IP不可能前一個月才宣傳 03/21 00:34
131Fryoma1: 沒這次合作我還真不知道這款遊戲,考慮入手來玩玩 03/21 00:35
132Fspace08ms: 會去找一下之前是誰預言還有一個小規模薩爾達? 03/21 00:35
133Fisaka: Joker已經說4月出了 03/21 00:35
134Fshinchen: 大亂鬥上次direct有說四月底前一定會有東西 03/21 00:35
135Ftony780504: 竟然是放出薩爾達跟indie合作,老任我真的猜不透你啊 03/21 00:36
136Fvsepr55: 不過節奏地牢真的暴幹難 03/21 00:36
137Ftony780504: 啊啊 03/21 00:36
138Fericyi: https://youtu.be/Y3fiwIdKhZw 薩爾達影片 03/21 00:36
139Fvsepr55: 相較之下黑魂是給小孩玩的= = 03/21 00:36
140Fryoma1: 真的假的?難度很高喔!拿空洞騎士做比喻的話? 03/21 00:37
141FZikan: 節奏感很差的話,絕對比空洞難 03/21 00:38
142Fk314181: 節奏地牢x薩爾達!買爆了啦~~~ 03/21 00:39
143FleamaSTC: 完全不同遊戲吧... 03/21 00:39
144Fspace08ms: 空洞整體難度這次頭尾都很勁爆啊 03/21 00:40
145Fshinchen: 類型差很多 節奏地牢比較像針對地形找路線的puzzle 但是 03/21 00:40
146Fvsepr55: 一樣都是回合制打怪遊戲(x 03/21 00:41
147Fshinchen: 加上配合節奏的限制增加判斷壓力 03/21 00:41
148Fryoma1: 不知道能收錄幾首BGM,宣傳片這首我超喜歡QQ 03/21 00:41
149FPorops: 節奏地牢很吃即時判斷跟節奏感,不同方向上的難度高 03/21 00:42
150FPorops: 不過看宣傳片推石頭跟林克/薩爾達,感覺難度會降低吧 03/21 00:42
151FDASPAWN: 節奏地牢是棋盤式即時戰鬥 你要很清楚怎麼運用武器範圍跟 03/21 00:42
152FDASPAWN: 怎麼走位 喜歡砍殺會很愛 因為攻防深度非常深 不過遊戲也 03/21 00:42
153FDASPAWN: 有比較簡單的角色可以玩就是了 03/21 00:42
154FleamaSTC: 我只想知道到底春季是什麼時候RRRR 03/21 00:43
155FPorops: 另外節奏地牢有中文,感覺這片中文也可以期待 03/21 00:43
156Fryoma1: 薩爾達長槍+法術,林克大師劍迴旋斬+弓箭 03/21 00:43
157FPorops: 另外偷偷許願一下,不知道有沒有可能讓spike也放彈丸論破 03/21 00:44
158FPorops: 合作來這片 03/21 00:44
159Fisaka: 日本的春季就是4-6月,夏季7-9,但美任那邊的summer是指啥 03/21 00:44
160Fisaka: 時我也疑惑 03/21 00:44
161FleamaSTC: 要彈丸論破來這片幹嘛...? 03/21 00:44
162Fvsepr55: 春天早就被重新定義了 03/21 00:45
163Fisaka: 現在在日本是冬季,日劇和動畫都是冬番剛結束,春番要開始 03/21 00:45
164FPorops: 初代因為跟spike合作很深,有一系列的彈丸論破角色跟音樂 03/21 00:45
165FPorops: 都有上節奏地牢 03/21 00:45
166Fisaka: 但是聖火就是跳票了沒錯 03/21 00:45
167FleamaSTC: 可以的話 希望不要啦 我對那系列已經一肚子火了 03/21 00:47
168Fundeadmask: 薩爾達地牢看起來超讚 好好玩的感覺 03/21 00:57
169Fundeadmask: 彈丸論破的合作好像只有主要角色 薩爾達連地圖都重繪 03/21 00:58
170Fundeadmask: 誠意超足的 03/21 00:58
171FleamaSTC: 不是重繪啊 基本上就是作新遊戲了 名字也新的 03/21 00:59
172FPorops: 就是新作了吧 03/21 01:01
173FPocer: 應該是新遊戲了 03/21 01:02
174FleamaSTC: 不只地圖 薩爾達老BOSS多頭龍也有出現 03/21 01:07
175Fundeadmask: 好吧 那我希望售價能跟節奏地牢一樣物美價廉 03/21 01:18
176Fundeadmask: 哈哈 03/21 01:18
177Fryoma1: 歐買尬!看起來還真的挺虐的https://youtu.be/O-FYeHTaxSE 03/21 01:22
178Fryoma1: 查了BGM剛好是出自織夢島 https://youtu.be/hOo5yr76RJs 03/21 01:32
179Fmonkiki1007: 杯子頭 跟 海拉爾節奏 給你錢趕快出! 03/21 02:47
180Fernova831: 4月要到了 櫻井把拔鳩可做好沒QQ 03/21 02:56
181FRushMonkey: 節奏地牢 X 薩爾達 真的沒想到....超級想玩啊!!! 03/21 04:06
182Fjohn950146: cuphead!! 但是身為手殘黨還是算了QQ 03/21 05:36
183Fboss0322: 欸 我以為是今天晚上直播欸 結果錯過了… 03/21 05:42
184Fx12118: 節奏地牢跟薩爾達實在是太搭啦!買爆! 03/21 06:46
185Fhorseorange: 茶杯頭原本有2p嗎 怎麼看影片好像能2p 03/21 07:15
186Fboss0322: 本來就有2p阿 03/21 07:20
187Fsendicmimic: 想說奇怪明明是節奏地牢跳跳跳,怎麼音樂很熟悉... 03/21 09:00
188Fsings123: 給我 星露谷X寶可夢,窟窿騎士X瑪利歐!! 03/21 09:05
189Fsrena: 節奏地牢x薩爾達~~哇 03/21 09:12
190Fmicheline: Katana ZERO看起來好像也不錯 03/21 10:02
191Fcolchi: 牧場物語X多啦A夢 03/21 10:44
192Fhh123yaya: celeste x SMM2 shovel knight x SM2 03/21 10:57
193Fhipposman: 樓上那個看起來我的頭就要爆掉了…拜偷不要 03/21 11:24
194Fvsepr55: 樓樓上成真我就買數位版再買實體放家裡拜 03/21 11:51
回到 nswitch 看板